TimeAKST,TemperatureF,Dew PointF,Humidity,Sea Level PressureIn,VisibilityMPH,Wind Direction,Wind SpeedMPH,Gust SpeedMPH,PrecipitationIn,Events,Conditions,WindDirDegrees,DateUTC
12:16 AM,33.8,32.0,93,29.68,10.0,SSW,3.5,-,N/A,,Overcast,200,2012-12-14 09:16:00
12:36 AM,33.8,32.0,93,29.68,10.0,Calm,Calm,-,N/A,,Overcast,0,2012-12-14 09:36:00
12:56 AM,33.8,30.2,87,29.68,10.0,Calm,Calm,-,N/A,,Overcast,0,2012-12-14 09:56:00
1:16 AM,33.8,30.2,87,29.68,10.0,Calm,Calm,-,N/A,,Overcast,0,2012-12-14 10:16:00
3:36 AM,-9999,-9999,N/A,29.64,-9999.0,SW,3.5,-,N/A,,Unknown,220,2012-12-14 12:36:00
3:56 AM,33.8,30.2,87,29.64,10.0,Calm,Calm,-,N/A,,Overcast,0,2012-12-14 12:56:00
4:16 AM,32.0,30.2,93,29.64,10.0,SW,3.5,-,N/A,,Overcast,230,2012-12-14 13:16:00
4:36 AM,33.8,30.2,87,29.64,10.0,South,4.6,-,N/A,,Overcast,180,2012-12-14 13:36:00
4:56 AM,33.8,30.2,87,29.63,10.0,Calm,Calm,-,N/A,,Overcast,0,2012-12-14 13:56:00
5:16 AM,33.8,30.2,87,29.62,10.0,Calm,Calm,-,N/A,,Overcast,0,2012-12-14 14:16:00
5:36 AM,33.8,30.2,87,29.62,10.0,Calm,Calm,-,N/A,,Overcast,0,2012-12-14 14:36:00
5:56 AM,35.6,32.0,87,29.61,10.0,Calm,Calm,-,N/A,,Overcast,0,2012-12-14 14:56:00
6:16 AM,33.8,32.0,93,29.59,7.0,SSW,3.5,-,N/A,,Overcast,210,2012-12-14 15:16:00
6:36 AM,33.8,32.0,93,29.58,7.0,Calm,Calm,-,0.01,,Overcast,0,2012-12-14 15:36:00
6:56 AM,35.6,32.0,87,29.57,7.0,Calm,Calm,-,0.02,,Overcast,0,2012-12-14 15:56:00
7:16 AM,35.6,32.0,87,29.56,7.0,NNE,3.5,-,0.01,,Overcast,20,2012-12-14 16:16:00
7:36 AM,33.8,30.2,87,29.55,7.0,Calm,Calm,-,0.02,,Overcast,0,2012-12-14 16:36:00
7:56 AM,35.6,30.2,81,29.54,2.5,North,3.5,-,0.03,,Overcast,350,2012-12-14 16:56:00
8:16 AM,35.6,30.2,81,29.52,2.5,NNW,4.6,-,N/A,,Overcast,330,2012-12-14 17:16:00
8:36 AM,33.8,30.2,87,29.52,2.5,NNW,4.6,-,0.01,,Overcast,330,2012-12-14 17:36:00
8:56 AM,33.8,32.0,93,29.51,2.5,Calm,Calm,-,0.02,,Overcast,0,2012-12-14 17:56:00
9:16 AM,35.6,30.2,81,29.49,2.5,Calm,Calm,-,0.03,,Overcast,0,2012-12-14 18:16:00
9:36 AM,33.8,30.2,87,29.49,2.5,Calm,Calm,-,0.05,,Overcast,0,2012-12-14 18:36:00
9:56 AM,33.8,30.2,87,29.48,2.5,Calm,Calm,-,0.06,,Overcast,0,2012-12-14 18:56:00
10:16 AM,33.8,30.2,87,29.48,2.5,Calm,Calm,-,0.02,,Overcast,0,2012-12-14 19:16:00
10:36 AM,33.8,30.2,87,29.46,2.5,Calm,Calm,-,0.03,,Overcast,0,2012-12-14 19:36:00
10:56 AM,33.8,32.0,93,29.45,3.0,Calm,Calm,-,0.04,,Overcast,0,2012-12-14 19:56:00
11:16 AM,33.8,30.2,87,29.44,3.0,Calm,Calm,-,0.01,,Overcast,0,2012-12-14 20:16:00
11:36 AM,33.8,30.2,87,29.43,3.0,Calm,Calm,-,0.03,,Overcast,0,2012-12-14 20:36:00
11:56 AM,33.8,30.2,87,29.42,2.5,Calm,Calm,-,0.04,,Overcast,0,2012-12-14 20:56:00
12:16 PM,33.8,30.2,87,29.40,2.5,Calm,Calm,-,0.02,,Overcast,0,2012-12-14 21:16:00
12:36 PM,35.6,32.0,87,29.38,2.5,Calm,Calm,-,0.03,,Overcast,0,2012-12-14 21:36:00
12:56 PM,35.6,32.0,87,29.36,3.0,East,5.8,-,0.05,,Overcast,90,2012-12-14 21:56:00
1:16 PM,35.6,32.0,87,29.34,3.0,East,9.2,-,0.01,,Overcast,100,2012-12-14 22:16:00
1:36 PM,35.6,32.0,87,29.32,5.0,East,13.8,19.6,0.03,,Overcast,90,2012-12-14 22:36:00
1:56 PM,35.6,32.0,87,29.31,5.0,East,10.4,16.1,0.04,,Overcast,100,2012-12-14 22:56:00
2:16 PM,37.4,32.0,81,29.30,5.0,East,9.2,19.6,0.01,,Overcast,90,2012-12-14 23:16:00
2:36 PM,37.4,32.0,81,29.27,5.0,East,10.4,19.6,0.04,,Overcast,90,2012-12-14 23:36:00
2:56 PM,37.4,32.0,81,29.25,5.0,East,12.7,19.6,0.06,,Overcast,80,2012-12-14 23:56:00
3:16 PM,37.4,32.0,81,29.24,5.0,ESE,11.5,25.3,0.02,,Overcast,110,2012-12-15 00:16:00
3:36 PM,37.4,33.8,87,29.22,5.0,East,8.1,26.5,0.03,,Overcast,90,2012-12-15 00:36:00
3:56 PM,-9999,-9999,N/A,29.21,5.0,SE,11.5,21.9,0.05,,Overcast,130,2012-12-15 00:56:00
4:16 PM,37.4,32.0,81,29.19,5.0,ESE,17.3,25.3,0.02,,Overcast,110,2012-12-15 01:16:00
4:36 PM,37.4,33.8,87,29.18,5.0,ESE,12.7,20.7,0.04,,Overcast,110,2012-12-15 01:36:00
4:56 PM,37.4,32.0,81,29.15,5.0,East,15.0,21.9,0.06,,Overcast,90,2012-12-15 01:56:00
5:16 PM,37.4,33.8,87,29.15,5.0,East,9.2,26.5,0.01,,Overcast,90,2012-12-15 02:16:00
5:36 PM,37.4,33.8,87,29.13,5.0,East,9.2,25.3,0.03,,Overcast,100,2012-12-15 02:36:00
5:56 PM,37.4,32.0,81,29.11,7.0,ENE,12.7,38.0,0.07,,Overcast,70,2012-12-15 02:56:00
6:16 PM,37.4,30.2,75,29.11,7.0,East,3.5,31.1,0.02,,Overcast,90,2012-12-15 03:16:00
6:36 PM,37.4,33.8,87,29.09,7.0,East,10.4,21.9,0.06,,Overcast,90,2012-12-15 03:36:00
6:56 PM,37.4,32.0,81,29.08,7.0,ESE,9.2,25.3,0.09,,Overcast,110,2012-12-15 03:56:00
7:16 PM,37.4,33.8,87,29.07,7.0,East,10.4,20.7,0.05,,Overcast,100,2012-12-15 04:16:00
7:36 PM,37.4,33.8,87,29.06,7.0,East,12.7,29.9,0.09,,Overcast,100,2012-12-15 04:36:00
7:56 PM,37.4,33.8,87,29.05,7.0,East,12.7,24.2,0.09,,Overcast,100,2012-12-15 04:56:00
8:16 PM,37.4,33.8,87,29.04,7.0,East,10.4,16.1,0.03,,Overcast,100,2012-12-15 05:16:00
8:36 PM,37.4,33.8,87,29.04,7.0,ESE,10.4,21.9,0.07,,Overcast,120,2012-12-15 05:36:00
8:56 PM,37.4,33.8,87,29.03,8.0,East,11.5,20.7,0.10,,Overcast,100,2012-12-15 05:56:00
9:16 PM,37.4,33.8,87,29.02,7.0,East,10.4,19.6,0.04,,Overcast,100,2012-12-15 06:16:00
9:36 PM,37.4,33.8,87,29.02,7.0,East,8.1,19.6,0.07,,Overcast,90,2012-12-15 06:36:00
9:56 PM,37.4,33.8,87,29.01,10.0,Calm,Calm,-,0.09,,Overcast,0,2012-12-15 06:56:00
10:16 PM,37.4,33.8,87,29.00,10.0,ESE,5.8,-,0.01,,Overcast,120,2012-12-15 07:16:00
10:36 PM,37.4,33.8,87,29.00,9.0,East,5.8,-,0.02,,Overcast,100,2012-12-15 07:36:00
10:56 PM,37.4,33.8,87,28.99,10.0,SSE,3.5,-,0.04,,Overcast,150,2012-12-15 07:56:00
11:16 PM,37.4,33.8,87,28.98,10.0,ESE,5.8,-,0.01,,Overcast,120,2012-12-15 08:16:00
11:36 PM,37.4,33.8,87,28.98,10.0,East,5.8,-,0.01,,Overcast,100,2012-12-15 08:36:00
11:56 PM,37.4,33.8,87,28.98,10.0,Calm,Calm,-,0.02,,Overcast,0,2012-12-15 08:56:00